Regional Weather Roundup
Issued by NWS

Home | Current Version | Previous Version | Graphics & Text | Print | Product List | Glossary On
Versions: 1 2 3 4 5 6 7 8 9 10 11 12 13 14 15 16 17 18 19 20 21 22 23 24 25 26 27 28 29 30 31 32 33 34 35 36 37 38 39 40 41 42 43 44 45 46 47 48 49 50
000
ASUS43 KBIS 030602
RWRND

NORTH DAKOTA REGIONAL WEATHER ROUNDUP
NATIONAL WEATHER SERVICE BISMARCK ND
100 AM CDT MON AUG 03 2015

NOTE: "FAIR" INDICATES FEW OR NO CLOUDS BELOW 12,000 FEET WITH NO
SIGNIFICANT WEATHER AND/OR OBSTRUCTIONS TO VISIBILITY.


NDZ001>003-009>011-017-030700-
NORTHWEST NORTH DAKOTA

CITY           SKY/WX    TMP DP  RH WIND       PRES   REMARKS
WILLISTON      CLEAR     63  49  60 N3        30.03R
6HR MIN TEMP:  62; 6HR MAX TEMP:  81;

MINOT          CLEAR     58  50  75 SW8       29.98R
$$

NDZ018>021-031>035-040>046-030700-
SOUTHWEST NORTH DAKOTA

CITY           SKY/WX    TMP DP  RH WIND       PRES   REMARKS
BISMARCK       CLEAR     60  54  80 SW6       29.99R
6HR MIN TEMP:  55; 6HR MAX TEMP:  79;

DICKINSON      CLEAR     59  49  69 SE3       30.03R
GARRISON         N/A     56  52  86 NW8       29.99R
6HR MIN TEMP:  56; 6HR MAX TEMP:  76;

HETTINGER ARPT CLEAR     57  49  74 CALM      30.05R
$$

NDZ004>008-012>016-024-026-027-054-030700-
NORTHEAST NORTH DAKOTA

CITY           SKY/WX    TMP DP  RH WIND       PRES   REMARKS
GRAND FORKS    CLEAR     56  49  77 NW7       29.87R
DEVILS LAKE    CLEAR     55  46  71 W7        29.92R
$$

NDZ022-023-025-028>030-036>039-047>053-030700-
SOUTHEAST NORTH DAKOTA

CITY           SKY/WX    TMP DP  RH WIND       PRES   REMARKS
FARGO          CLEAR     57  50  77 W7        29.88R
6HR MIN TEMP:  57; 6HR MAX TEMP:  76;

JAMESTOWN      CLEAR     58  51  78 W5        29.94R
$$




USA.gov is the U.S. government's official web portal to all federal, state and local government web resources and services.